EW4036 Weather Reports


Display with metric or nautical units.
time (UTC)temp
F
wind
direction
speed
MPH
gust
MPH
rain 1hr
in
rain 24hr
in
rain mn
in
humidity
%
barometer
mb
20260510104554 55 186 10.0 15.0 0.00 0.00 0.00 51 1009.6
20260510103042 56 194 12.0 17.0 0.00 0.00 0.00 49 1009.9
20260510101641 55 170 11.0 16.0 0.00 0.00 0.00 49 1010.1
20260510100044 55 209 10.0 15.0 0.00 0.00 0.00 47 1010.3
20260510094558 56 214 8.0 15.0 0.00 0.00 0.00 45 1010.4
20260510093145 56 281 3.0 11.0 0.00 0.00 0.00 45 1010.5
20260510091547 55 182 3.0 8.0 0.00 0.00 0.00 46 1010.9
20260510090047 56 156 2.0 15.0 0.00 0.00 0.00 45 1011.1
20260510084546 56 198 6.0 11.0 0.00 0.00 0.00 45 1011.3
20260510083046 56 171 6.0 14.0 0.00 0.00 0.00 41 1011.6
20260510081546 55 217 5.0 14.0 0.00 0.00 0.00 40 1011.9
20260510080142 55 229 9.0 13.0 0.00 0.00 0.00 41 1012.1
20260510074547 54 216 6.0 13.0 0.00 0.00 0.00 42 1012.3
20260510073047 54 240 8.0 13.0 0.00 0.00 0.00 44 1012.6
20260510071553 53 211 8.0 12.0 0.00 0.00 0.00 46 1012.7
20260510070142 53 252 8.0 15.0 0.00 0.00 0.00 47 1012.9
20260510064543 52 217 8.0 12.0 0.00 0.00 0.00 49 1013.1
20260510063044 51 223 5.0 8.0 0.00 0.00 0.00 52 1013.2
20260510061543 49 184 5.0 9.0 0.00 0.00 0.00 55 1013.5
20260510060142 48 198 5.0 9.0 0.00 0.00 0.00 58 1013.6
20260510054546 46 194 4.0 8.0 0.00 0.00 0.00 65 1013.8
20260510053144 45 170 4.0 7.0 0.00 0.00 0.00 68 1013.9
20260510051548 44 169 4.0 7.0 0.00 0.00 0.00 70 1013.9
20260510050044 43 193 3.0 5.0 0.00 0.00 0.00 76 1014.1
20260510044549 40 167 0.0 2.0 0.00 0.00 0.00 79 1014.2
20260510043058 39 178 2.0 4.0 0.00 0.00 0.00 79 1014.2
20260510041547 38 163 1.0 2.0 0.00 0.00 0.00 78 1014.3
20260510040143 37 138 1.0 3.0 0.00 0.00 0.00 78 1014.5
20260510034544 37 153 0.0 2.0 0.00 0.00 0.00 76 1014.7
20260510033043 38 149 2.0 4.0 0.00 0.00 0.00 74 1014.8
20260510031550 39 94 2.0 6.0 0.00 0.00 0.00 73 1014.8
20260510030047 39 130 1.0 6.0 0.00 0.00 0.00 72 1014.9
20260510024550 40 140 3.0 5.0 0.00 0.00 0.00 71 1015.0
20260510023144 40 155 2.0 5.0 0.00 0.00 0.00 70 1015.2
20260510021547 41 88 2.0 5.0 0.00 0.00 0.00 69 1015.3
20260510020042 41 127 2.0 6.0 0.00 0.00 0.00 69 1015.5
20260510014547 41 73 2.0 5.0 0.00 0.00 0.00 68 1015.5
20260510013141 42 97 3.0 6.0 0.00 0.00 0.00 67 1015.6
20260510011545 42 99 2.0 5.0 0.00 0.00 0.00 67 1015.8
20260510010142 42 126 1.0 6.0 0.00 0.00 0.00 66 1016.0
20260510004545 42 91 3.0 6.0 0.00 0.00 0.00 68 1016.1
20260510003046 42 117 1.0 3.0 0.00 0.00 0.00 70 1016.2
20260510001546 41 150 1.0 4.0 0.00 0.00 0.00 70 1016.3
20260510000141 43 167 1.0 4.0 0.00 0.00 0.00 67 1016.3
20260509234544 44 85 3.0 8.0 0.00 0.00 0.00 65 1016.2
20260509233043 45 119 3.0 9.0 0.00 0.00 0.00 64 1016.4
20260509231545 45 144 5.0 9.0 0.00 0.00 0.00 63 1016.6
20260509230142 46 109 3.0 8.0 0.00 0.00 0.00 62 1016.7
20260509224541 46 83 3.0 8.0 0.00 0.00 0.00 61 1016.9
20260509221542 47 94 4.0 9.0 0.00 0.00 0.00 58 1017.1
20260509220046 47 89 3.0 9.0 0.00 0.00 0.00 57 1017.3
20260509214600 48 82 2.0 9.0 0.00 0.00 0.00 55 1017.5
20260509213042 48 37 1.0 7.0 0.00 0.00 0.00 53 1017.7
20260509211545 49 74 4.0 10.0 0.00 0.00 0.00 52 1017.9
20260509204547 50 92 2.0 8.0 0.00 0.00 0.00 49 1017.8
20260509203053 51 111 3.0 10.0 0.00 0.00 0.00 48 1017.8
20260509201543 51 116 5.0 11.0 0.00 0.00 0.00 47 1017.9
20260509200043 52 74 5.0 14.0 0.00 0.00 0.00 46 1017.8
20260509194550 53 83 6.0 13.0 0.00 0.00 0.00 44 1017.8
20260509193046 54 80 5.0 12.0 0.00 0.00 0.00 43 1017.9
20260509191557 54 61 5.0 10.0 0.00 0.00 0.00 41 1017.9
20260509190050 55 104 5.0 10.0 0.00 0.00 0.00 38 1017.9
20260509184556 57 85 4.0 10.0 0.00 0.00 0.00 36 1018.1
20260509183142 58 51 2.0 6.0 0.00 0.00 0.00 33 1017.9
20260509181545 59 90 2.0 5.0 0.00 0.00 0.00 33 1017.9
20260509180142 59 96 3.0 7.0 0.00 0.00 0.00 33 1017.9
20260509174600 60 72 4.0 8.0 0.00 0.00 0.00 32 1017.9
20260509173049 60 78 3.0 9.0 0.00 0.00 0.00 31 1018.1
20260509171547 60 155 5.0 10.0 0.00 0.00 0.00 31 1018.1
20260509170041 60 118 4.0 8.0 0.00 0.00 0.00 28 1018.3
20260509164545 60 167 5.0 12.0 0.00 0.00 0.00 31 1018.3
20260509163141 61 109 5.0 10.0 0.00 0.00 0.00 28 1018.6
20260509161547 61 84 3.0 10.0 0.00 0.00 0.00 29 1018.8
20260509160042 61 165 4.0 13.0 0.00 0.00 0.00 29 1019.0
20260509154545 61 159 4.0 9.0 0.00 0.00 0.00 28 1019.1
20260509153143 62 117 5.0 11.0 0.00 0.00 0.00 27 1019.3
20260509151550 61 175 5.0 8.0 0.00 0.00 0.00 27 1019.5
20260509150142 62 161 5.0 10.0 0.00 0.00 0.00 26 1019.7
20260509144543 61 74 3.0 10.0 0.00 0.00 0.00 27 1019.8
20260509143041 62 38 6.0 12.0 0.00 0.00 0.00 26 1020.0
20260509141542 62 155 4.0 11.0 0.00 0.00 0.00 27 1020.1
20260509140141 61 89 7.0 14.0 0.00 0.00 0.00 26 1020.4
20260509134546 61 132 7.0 12.0 0.00 0.00 0.00 27 1020.6
20260509133044 61 78 9.0 14.0 0.00 0.00 0.00 25 1020.7
20260509131546 60 92 7.0 14.0 0.00 0.00 0.00 26 1020.9
20260509130145 60 159 7.0 15.0 0.00 0.00 0.00 26 1021.2
20260509124551 60 149 2.0 10.0 0.00 0.00 0.00 24 1021.5
20260509123044 60 192 7.0 12.0 0.00 0.00 0.00 27 1021.7
20260509121547 59 181 2.0 13.0 0.00 0.00 0.00 25 1021.8
20260509120141 60 166 3.0 15.0 0.00 0.00 0.00 23 1022.0
20260509114553 59 173 5.0 13.0 0.00 0.00 0.00 26 1022.3
20260509113045 59 161 4.0 13.0 0.00 0.00 0.00 25 1022.4
20260509111545 58 196 7.0 15.0 0.00 0.00 0.00 26 1022.6
20260509110049 59 180 5.0 12.0 0.00 0.00 0.00 28 1022.7